Location: Banios
(43.0451°N, 0.2335°E)
Time: 13:53:39
(UTC+00:00)

Cosmos 2219 Rocket - Pass Details

Date: 25 January 2021
Orbit: 828 x 846 km, 71.0° (Epoch: 25 February)

Event Time Altitude Azimuth Distance (km) Brightness Sun altitude
Exits shadow 04:13:17 19° 18° (NNE) 1,891 4.2 -34.2°
Drops below altitude 10° 04:14:46 10° 20° (NNE) 2,441 4.8 -33.9°
Sets 04:17:14 0° 23° (NNE) 3,379 5.7 -33.5°
